Time,TemperatureF,DewpointF,PressureIn,WindDirection,WindDirectionDegrees,WindSpeedMPH,WindSpeedGustMPH,Humidity,HourlyPrecipIn,Conditions,Clouds,dailyrainin,SolarRadiationWatts/m^2,SoftwareType,DateUTC
2013-07-07 00:01:00,67.4,66.2,30.08,West,273,0.0,0.0,96,0.00,RA,,0.00,0.0,WeatherDisplay:10.37,2013-07-07 05:01:00,
2013-07-07 00:06:00,67.2,66.0,30.07,West,273,0.0,0.0,96,0.00,RA,,0.00,0.0,WeatherDisplay:10.37,2013-07-07 05:06:00,
2013-07-07 00:11:00,67.1,65.9,30.07,West,273,0.0,0.0,96,0.00,SCT,,0.00,0.0,WeatherDisplay:10.37,2013-07-07 05:11:00,
2013-07-07 00:16:00,67.1,65.9,30.07,West,273,0.0,0.0,96,0.00,SCT,,0.00,0.0,WeatherDisplay:10.37,2013-07-07 05:16:00,
2013-07-07 00:21:00,67.1,65.9,30.07,West,273,0.0,0.0,96,0.00,OVC,,0.00,0.0,WeatherDisplay:10.37,2013-07-07 05:21:00,
2013-07-07 00:26:00,67.1,66.2,30.07,West,273,0.0,0.0,97,0.00,OVC,,0.00,0.0,WeatherDisplay:10.37,2013-07-07 05:26:00,
2013-07-07 00:31:00,67.1,66.2,30.07,West,273,0.0,0.0,97,0.00,OVC,,0.00,0.0,WeatherDisplay:10.37,2013-07-07 05:31:00,
2013-07-07 00:36:00,67.1,66.2,30.07,West,273,0.0,0.0,97,0.00,OVC,,0.00,0.0,WeatherDisplay:10.37,2013-07-07 05:36:00,
2013-07-07 00:41:00,67.0,66.1,30.07,West,273,0.0,0.0,97,0.00,OVC,,0.00,0.0,WeatherDisplay:10.37,2013-07-07 05:41:00,
2013-07-07 00:46:00,67.0,65.8,30.07,West,273,0.0,0.0,96,0.00,OVC,,0.00,0.0,WeatherDisplay:10.37,2013-07-07 05:46:00,
2013-07-07 00:51:00,66.9,65.7,30.07,West,273,0.0,0.0,96,0.00,OVC,,0.00,0.0,WeatherDisplay:10.37,2013-07-07 05:51:00,
2013-07-07 00:56:00,66.9,66.0,30.07,West,273,0.0,0.0,97,0.00,OVC,,0.00,0.0,WeatherDisplay:10.37,2013-07-07 05:56:00,
2013-07-07 01:01:00,66.9,66.0,30.07,West,273,0.0,0.0,97,0.00,OVC,,0.00,0.0,WeatherDisplay:10.37,2013-07-07 06:01:00,
2013-07-07 01:06:00,66.9,66.0,30.06,West,273,0.0,0.0,97,0.00,OVC,,0.00,0.0,WeatherDisplay:10.37,2013-07-07 06:06:00,
2013-07-07 01:11:00,67.0,66.1,30.06,West,273,0.0,0.0,97,0.00,OVC,,0.00,0.0,WeatherDisplay:10.37,2013-07-07 06:11:00,
2013-07-07 01:16:00,67.0,66.1,30.06,West,273,0.1,1.0,97,0.00,OVC,,0.00,0.0,WeatherDisplay:10.37,2013-07-07 06:16:00,
2013-07-07 01:21:00,66.9,66.0,30.06,West,273,0.0,0.0,97,0.00,BKN,,0.00,0.0,WeatherDisplay:10.37,2013-07-07 06:21:00,
2013-07-07 01:26:00,66.9,66.0,30.06,West,273,0.0,0.0,97,0.00,BKN,,0.00,0.0,WeatherDisplay:10.37,2013-07-07 06:26:00,
2013-07-07 01:31:00,66.8,65.9,30.06,West,273,0.0,0.0,97,0.00,BKN,,0.00,0.0,WeatherDisplay:10.37,2013-07-07 06:31:00,
2013-07-07 01:36:00,66.7,65.8,30.05,West,273,0.0,1.2,97,0.00,BKN,,0.00,0.0,WeatherDisplay:10.37,2013-07-07 06:36:00,
2013-07-07 01:41:00,66.7,65.8,30.06,West,273,0.1,1.2,97,0.00,OVC,,0.00,0.0,WeatherDisplay:10.37,2013-07-07 06:41:00,
2013-07-07 01:46:00,66.7,65.8,30.06,West,273,0.4,2.0,97,0.00,OVC,,0.00,0.0,WeatherDisplay:10.37,2013-07-07 06:46:00,
2013-07-07 01:51:00,66.7,65.8,30.06,West,273,0.0,0.0,97,0.00,OVC,,0.00,0.0,WeatherDisplay:10.37,2013-07-07 06:51:00,
2013-07-07 01:56:00,66.7,65.8,30.05,West,273,0.3,1.2,97,0.00,OVC,,0.00,0.0,WeatherDisplay:10.37,2013-07-07 06:56:00,
2013-07-07 02:01:00,66.8,65.9,30.04,West,273,0.0,0.0,97,0.00,OVC,,0.00,0.0,WeatherDisplay:10.37,2013-07-07 07:01:00,
2013-07-07 02:06:00,66.9,66.0,30.04,NNE,33,0.4,2.3,97,0.00,OVC,,0.00,0.0,WeatherDisplay:10.37,2013-07-07 07:06:00,
2013-07-07 02:11:00,66.9,66.0,30.03,NNE,33,0.0,0.0,97,0.00,OVC,,0.00,0.0,WeatherDisplay:10.37,2013-07-07 07:11:00,
2013-07-07 02:16:00,66.8,65.9,30.03,East,94,0.0,1.2,97,0.00,OVC,,0.00,0.0,WeatherDisplay:10.37,2013-07-07 07:16:00,
2013-07-07 02:21:00,66.7,65.8,30.03,East,94,0.0,1.2,97,0.00,BKN,,0.00,0.0,WeatherDisplay:10.37,2013-07-07 07:21:00,
2013-07-07 02:26:00,66.7,65.8,30.03,ESE,106,0.2,1.2,97,0.00,BKN,,0.00,0.0,WeatherDisplay:10.37,2013-07-07 07:26:00,
2013-07-07 02:31:00,66.7,65.8,30.03,SE,144,0.4,3.5,97,0.00,BKN,,0.00,0.0,WeatherDisplay:10.37,2013-07-07 07:31:00,
2013-07-07 02:36:00,66.7,65.8,30.03,SSE,163,0.4,2.0,97,0.00,BKN,,0.00,0.0,WeatherDisplay:10.37,2013-07-07 07:36:00,
2013-07-07 02:41:00,66.7,65.8,30.03,SE,142,0.4,3.5,97,0.00,SCT,,0.00,0.0,WeatherDisplay:10.37,2013-07-07 07:41:00,
2013-07-07 02:46:00,66.7,66.1,30.03,South,176,0.2,1.2,98,0.00,SCT,,0.00,0.0,WeatherDisplay:10.37,2013-07-07 07:46:00,
2013-07-07 02:51:00,66.7,66.1,30.02,East,95,0.1,1.2,98,0.00,SCT,,0.00,0.0,WeatherDisplay:10.37,2013-07-07 07:51:00,
2013-07-07 02:56:00,66.7,66.1,30.02,SW,216,0.3,1.2,98,0.00,SCT,,0.00,0.0,WeatherDisplay:10.37,2013-07-07 07:56:00,
2013-07-07 03:01:00,66.9,66.3,30.02,SSE,153,1.0,3.5,98,0.00,BKN,,0.00,0.0,WeatherDisplay:10.37,2013-07-07 08:01:00,
2013-07-07 03:06:00,67.0,66.4,30.02,SSE,165,0.1,2.3,98,0.00,BKN,,0.00,0.0,WeatherDisplay:10.37,2013-07-07 08:06:00,
2013-07-07 03:11:00,67.1,66.5,30.01,SSE,165,0.0,0.0,98,0.00,BKN,,0.00,0.0,WeatherDisplay:10.37,2013-07-07 08:11:00,
2013-07-07 03:16:00,67.1,66.5,30.02,ENE,67,0.1,1.2,98,0.00,BKN,,0.00,0.0,WeatherDisplay:10.37,2013-07-07 08:16:00,
2013-07-07 03:21:00,67.1,66.5,30.02,ENE,69,0.7,2.0,98,0.00,OVC,,0.00,0.0,WeatherDisplay:10.37,2013-07-07 08:21:00,
2013-07-07 03:26:00,67.2,66.6,30.02,ENE,69,0.0,0.0,98,0.00,OVC,,0.00,0.0,WeatherDisplay:10.37,2013-07-07 08:26:00,
2013-07-07 03:31:00,67.2,66.6,30.03,SSE,153,0.0,1.2,98,0.00,OVC,,0.00,0.0,WeatherDisplay:10.37,2013-07-07 08:31:00,
2013-07-07 03:36:00,67.3,66.7,30.03,South,190,0.4,2.3,98,0.00,OVC,,0.00,0.0,WeatherDisplay:10.37,2013-07-07 08:36:00,
2013-07-07 03:41:00,67.4,66.8,30.04,SSW,207,1.2,3.5,98,0.00,OVC,,0.00,0.0,WeatherDisplay:10.37,2013-07-07 08:41:00,
2013-07-07 03:46:00,67.6,67.0,30.03,SSW,208,1.6,3.5,98,0.00,OVC,,0.00,0.0,WeatherDisplay:10.37,2013-07-07 08:46:00,
2013-07-07 03:51:00,67.7,67.1,30.04,SSW,208,0.7,2.0,98,0.00,OVC,,0.00,0.0,WeatherDisplay:10.37,2013-07-07 08:51:00,
2013-07-07 03:56:00,67.8,67.2,30.04,SSW,208,0.1,1.0,98,0.00,OVC,,0.00,0.0,WeatherDisplay:10.37,2013-07-07 08:56:00,
2013-07-07 04:01:00,67.9,67.3,30.04,SW,227,0.3,1.2,98,0.00,OVC,,0.00,0.0,WeatherDisplay:10.37,2013-07-07 09:01:00,
2013-07-07 04:06:00,68.0,67.4,30.04,SW,226,0.3,1.0,98,0.00,OVC,,0.00,0.0,WeatherDisplay:10.37,2013-07-07 09:06:00,
2013-07-07 04:11:00,68.0,67.4,30.04,SW,226,1.0,3.0,98,0.00,OVC,,0.00,0.0,WeatherDisplay:10.37,2013-07-07 09:11:00,
2013-07-07 04:16:00,68.1,67.5,30.04,SSW,202,1.4,3.5,98,0.00,OVC,,0.00,0.0,WeatherDisplay:10.37,2013-07-07 09:16:00,
2013-07-07 04:21:00,68.1,67.5,30.04,SSW,202,0.6,2.3,98,0.00,OVC,,0.00,0.0,WeatherDisplay:10.37,2013-07-07 09:21:00,
2013-07-07 04:26:00,68.1,67.5,30.04,SSW,196,0.8,3.5,98,0.00,OVC,,0.00,0.0,WeatherDisplay:10.37,2013-07-07 09:26:00,
2013-07-07 04:31:00,68.2,67.6,30.04,SSW,196,0.0,0.0,98,0.00,OVC,,0.00,0.0,WeatherDisplay:10.37,2013-07-07 09:31:00,
2013-07-07 04:36:00,68.2,67.6,30.04,SW,231,1.1,3.5,98,0.00,OVC,,0.00,0.0,WeatherDisplay:10.37,2013-07-07 09:36:00,
2013-07-07 04:41:00,68.3,67.7,30.04,SW,230,2.1,4.0,98,0.00,OVC,,0.00,0.0,WeatherDisplay:10.37,2013-07-07 09:41:00,
2013-07-07 04:46:00,68.3,67.7,30.05,SW,215,2.6,4.6,98,0.00,OVC,,0.00,0.0,WeatherDisplay:10.37,2013-07-07 09:46:00,
2013-07-07 04:51:00,68.3,67.7,30.05,SW,215,0.7,3.5,98,0.00,OVC,,0.00,0.0,WeatherDisplay:10.37,2013-07-07 09:51:00,
2013-07-07 04:56:00,68.4,67.5,30.05,SW,215,0.3,2.3,97,0.00,OVC,,0.00,0.0,WeatherDisplay:10.37,2013-07-07 09:56:00,
2013-07-07 05:01:00,68.3,67.4,30.05,WSW,243,2.5,3.5,97,0.00,OVC,,0.00,0.0,WeatherDisplay:10.37,2013-07-07 10:01:00,
2013-07-07 05:06:00,68.3,67.4,30.05,SW,228,0.4,2.3,97,0.00,OVC,,0.00,0.0,WeatherDisplay:10.37,2013-07-07 10:06:00,
2013-07-07 05:11:00,68.3,67.4,30.05,WSW,249,1.7,3.5,97,0.00,OVC,,0.00,0.0,WeatherDisplay:10.37,2013-07-07 10:11:00,
2013-07-07 05:16:00,68.3,67.4,30.06,WSW,249,0.0,2.3,97,0.00,OVC,,0.00,0.0,WeatherDisplay:10.37,2013-07-07 10:16:00,
2013-07-07 05:21:00,68.3,67.4,30.06,WSW,249,1.7,3.5,97,0.00,OVC,,0.00,0.0,WeatherDisplay:10.37,2013-07-07 10:21:00,
2013-07-07 05:26:00,68.3,67.4,30.06,WSW,254,0.5,2.3,97,0.00,OVC,,0.00,0.0,WeatherDisplay:10.37,2013-07-07 10:26:00,
2013-07-07 05:31:00,68.3,67.4,30.06,WSW,254,0.4,3.5,97,0.00,OVC,,0.00,0.0,WeatherDisplay:10.37,2013-07-07 10:31:00,
2013-07-07 05:36:00,68.3,67.4,30.06,WSW,254,1.5,3.5,97,0.00,OVC,,0.00,0.0,WeatherDisplay:10.37,2013-07-07 10:36:00,
2013-07-07 05:41:00,68.3,67.4,30.07,WSW,254,2.3,3.5,97,0.00,OVC,,0.00,0.0,WeatherDisplay:10.37,2013-07-07 10:41:00,
2013-07-07 05:46:00,68.2,67.3,30.07,SW,236,2.0,3.5,97,0.00,OVC,,0.00,0.0,WeatherDisplay:10.37,2013-07-07 10:46:00,
2013-07-07 05:51:00,68.2,67.3,30.07,SSW,200,2.9,5.8,97,0.00,OVC,,0.00,0.0,WeatherDisplay:10.37,2013-07-07 10:51:00,
2013-07-07 05:56:00,68.2,67.3,30.07,SW,215,0.5,3.5,97,0.00,OVC,,0.00,0.0,WeatherDisplay:10.37,2013-07-07 10:56:00,
2013-07-07 06:01:00,68.2,67.3,30.07,SW,215,1.3,3.5,97,0.00,OVC,,0.00,7.0,WeatherDisplay:10.37,2013-07-07 11:01:00,
2013-07-07 06:07:00,68.1,67.2,30.07,SW,215,0.0,2.0,97,0.00,OVC,,0.00,11.0,WeatherDisplay:10.37,2013-07-07 11:07:00,
2013-07-07 06:12:00,68.1,67.2,30.07,SW,215,0.0,3.0,97,0.00,OVC,,0.00,14.0,WeatherDisplay:10.37,2013-07-07 11:12:00,
2013-07-07 06:17:00,68.0,67.2,30.07,SW,215,1.0,2.0,97,0.00,OVC,,0.00,14.0,WeatherDisplay:10.37,2013-07-07 11:17:00,
2013-07-07 06:22:00,68.0,67.1,30.08,SW,215,0.0,2.0,97,0.00,SCT,,0.00,18.0,WeatherDisplay:10.37,2013-07-07 11:22:00,
2013-07-07 06:27:00,67.9,67.0,30.08,SW,215,0.0,0.0,97,0.00,SCT,,0.00,37.0,WeatherDisplay:10.37,2013-07-07 11:27:00,
2013-07-07 06:32:00,68.0,67.1,30.08,SW,215,0.0,0.0,97,0.00,SCT,,0.00,77.0,WeatherDisplay:10.37,2013-07-07 11:32:00,
2013-07-07 06:37:00,68.1,67.3,30.08,SW,215,0.0,0.0,97,0.00,SCT,,0.00,63.0,WeatherDisplay:10.37,2013-07-07 11:37:00,
2013-07-07 06:42:00,68.4,67.5,30.08,SW,215,0.0,0.0,97,0.00,BKN,,0.00,32.0,WeatherDisplay:10.37,2013-07-07 11:42:00,
2013-07-07 06:47:00,68.4,67.5,30.08,SW,215,1.0,2.0,97,0.00,BKN,,0.00,35.0,WeatherDisplay:10.37,2013-07-07 11:47:00,
2013-07-07 06:52:00,68.5,67.6,30.08,SW,215,0.0,2.0,97,0.00,BKN,,0.00,40.0,WeatherDisplay:10.37,2013-07-07 11:52:00,
2013-07-07 06:57:00,68.5,67.6,30.09,SW,215,0.0,1.0,97,0.00,BKN,,0.00,76.0,WeatherDisplay:10.37,2013-07-07 11:57:00,
2013-07-07 07:02:00,68.7,67.8,30.09,SW,215,1.0,2.0,97,0.00,OVC,,0.00,153.0,WeatherDisplay:10.37,2013-07-07 12:02:00,
2013-07-07 07:07:00,68.9,68.0,30.09,SW,215,1.0,3.0,97,0.00,OVC,,0.00,63.0,WeatherDisplay:10.37,2013-07-07 12:07:00,
2013-07-07 07:12:00,69.0,68.1,30.09,SW,215,1.0,3.0,97,0.00,OVC,,0.00,42.0,WeatherDisplay:10.37,2013-07-07 12:12:00,
2013-07-07 07:17:00,69.0,68.1,30.09,SW,215,1.0,3.0,97,0.00,OVC,,0.00,243.0,WeatherDisplay:10.37,2013-07-07 12:17:00,
2013-07-07 07:22:00,69.1,68.2,30.09,SW,215,0.0,2.0,97,0.00,BKN,,0.00,202.0,WeatherDisplay:10.37,2013-07-07 12:22:00,
2013-07-07 07:27:00,69.3,68.4,30.09,SW,215,0.0,2.0,97,0.00,BKN,,0.00,176.0,WeatherDisplay:10.37,2013-07-07 12:27:00,
2013-07-07 07:32:00,69.6,68.7,30.09,SW,215,0.0,2.0,97,0.00,BKN,,0.00,120.0,WeatherDisplay:10.37,2013-07-07 12:32:00,
2013-07-07 07:37:00,69.9,69.0,30.09,SW,215,1.0,2.0,97,0.00,BKN,,0.00,188.0,WeatherDisplay:10.37,2013-07-07 12:37:00,
2013-07-07 07:42:00,69.9,68.7,30.10,SW,215,0.0,2.0,96,0.00,BKN,,0.00,105.0,WeatherDisplay:10.37,2013-07-07 12:42:00,
2013-07-07 07:47:00,70.2,69.0,30.10,SW,215,0.0,1.0,96,0.00,BKN,,0.00,116.0,WeatherDisplay:10.37,2013-07-07 12:47:00,
2013-07-07 07:52:00,70.3,68.8,30.10,SW,215,0.0,2.0,95,0.00,BKN,,0.00,158.0,WeatherDisplay:10.37,2013-07-07 12:52:00,
2013-07-07 07:57:00,70.4,68.9,30.10,SW,215,0.0,2.0,95,0.00,BKN,,0.00,207.0,WeatherDisplay:10.37,2013-07-07 12:57:00,
2013-07-07 08:02:00,70.9,69.4,30.10,SW,214,1.0,5.0,95,0.00,SCT,,0.00,146.0,WeatherDisplay:10.37,2013-07-07 13:02:00,
2013-07-07 08:07:00,71.1,69.0,30.11,SSW,213,1.0,3.0,93,0.00,SCT,,0.00,204.0,WeatherDisplay:10.37,2013-07-07 13:07:00,
2013-07-07 08:12:00,71.2,69.4,30.11,SSW,213,0.0,2.0,94,0.00,SCT,,0.00,302.0,WeatherDisplay:10.37,2013-07-07 13:12:00,
2013-07-07 08:17:00,71.4,69.2,30.11,SSW,213,1.0,3.0,93,0.00,SCT,,0.00,127.0,WeatherDisplay:10.37,2013-07-07 13:17:00,
2013-07-07 08:22:00,71.4,69.0,30.11,SSW,213,0.0,2.0,92,0.00,BKN,,0.00,163.0,WeatherDisplay:10.37,2013-07-07 13:22:00,
2013-07-07 08:27:00,71.5,68.7,30.11,SSW,213,0.0,2.0,91,0.00,BKN,,0.00,265.0,WeatherDisplay:10.37,2013-07-07 13:27:00,
2013-07-07 08:32:00,71.7,68.9,30.11,SSW,213,1.0,2.0,91,0.00,BKN,,0.00,345.0,WeatherDisplay:10.37,2013-07-07 13:32:00,
2013-07-07 08:37:00,71.8,69.0,30.11,SSW,213,0.0,2.0,91,0.00,BKN,,0.00,408.0,WeatherDisplay:10.37,2013-07-07 13:37:00,
2013-07-07 08:42:00,72.3,69.2,30.11,SSW,202,3.0,5.0,90,0.00,OVC,,0.00,406.0,WeatherDisplay:10.37,2013-07-07 13:42:00,
2013-07-07 08:47:00,72.4,69.3,30.11,SSW,198,1.0,3.0,90,0.00,OVC,,0.00,248.0,WeatherDisplay:10.37,2013-07-07 13:47:00,
2013-07-07 08:52:00,72.8,69.4,30.11,South,182,1.0,5.0,89,0.00,OVC,,0.00,362.0,WeatherDisplay:10.37,2013-07-07 13:52:00,
2013-07-07 08:57:00,73.1,69.7,30.11,SSW,198,1.0,4.0,89,0.00,OVC,,0.00,241.0,WeatherDisplay:10.37,2013-07-07 13:57:00,
2013-07-07 09:02:00,73.4,70.0,30.11,WNW,283,0.0,2.0,89,0.00,SCT,,0.00,160.0,WeatherDisplay:10.37,2013-07-07 14:02:00,
2013-07-07 09:07:00,73.8,71.0,30.11,WNW,286,0.0,1.2,91,0.00,SCT,,0.00,503.0,WeatherDisplay:10.37,2013-07-07 14:07:00,
2013-07-07 09:12:00,74.6,71.1,30.11,West,263,2.0,4.0,89,0.00,SCT,,0.00,642.0,WeatherDisplay:10.37,2013-07-07 14:12:00,
2013-07-07 09:17:00,74.7,70.6,30.11,WNW,289,1.3,4.0,87,0.00,SCT,,0.00,392.0,WeatherDisplay:10.37,2013-07-07 14:17:00,
2013-07-07 09:22:00,74.6,70.1,30.10,SSW,211,3.1,4.0,86,0.00,SCT,,0.00,550.0,WeatherDisplay:10.37,2013-07-07 14:22:00,
2013-07-07 09:27:00,74.7,70.6,30.10,SW,225,0.2,2.3,87,0.00,SCT,,0.00,541.0,WeatherDisplay:10.37,2013-07-07 14:27:00,
2013-07-07 09:32:00,75.2,71.4,30.10,SW,225,0.0,4.0,88,0.00,SCT,,0.00,680.0,WeatherDisplay:10.37,2013-07-07 14:32:00,
2013-07-07 09:37:00,75.5,71.4,30.10,SW,232,0.6,3.5,87,0.00,SCT,,0.00,306.0,WeatherDisplay:10.37,2013-07-07 14:37:00,
2013-07-07 09:42:00,75.6,70.8,30.10,SW,229,1.6,3.5,85,0.00,BKN,,0.00,315.0,WeatherDisplay:10.37,2013-07-07 14:42:00,
2013-07-07 09:47:00,75.6,70.8,30.11,WSW,250,1.9,3.5,85,0.00,BKN,,0.00,239.0,WeatherDisplay:10.37,2013-07-07 14:47:00,
2013-07-07 09:52:00,75.5,70.3,30.10,WSW,240,1.2,3.5,84,0.00,BKN,,0.00,605.0,WeatherDisplay:10.37,2013-07-07 14:52:00,
2013-07-07 09:57:00,75.9,71.1,30.10,WSW,250,1.5,3.5,85,0.00,BKN,,0.00,603.0,WeatherDisplay:10.37,2013-07-07 14:57:00,
2013-07-07 10:02:00,76.4,70.9,30.10,WSW,254,1.4,3.5,83,0.00,BKN,,0.00,613.0,WeatherDisplay:10.37,2013-07-07 15:02:00,
2013-07-07 10:07:00,76.7,71.8,30.11,WSW,254,0.7,3.5,85,0.00,BKN,,0.00,636.0,WeatherDisplay:10.37,2013-07-07 15:07:00,
2013-07-07 10:12:00,76.8,70.5,30.11,SW,228,2.0,3.5,81,0.00,BKN,,0.00,664.0,WeatherDisplay:10.37,2013-07-07 15:12:00,
2013-07-07 10:17:00,77.1,70.8,30.11,WSW,258,1.0,4.0,81,0.00,BKN,,0.00,680.0,WeatherDisplay:10.37,2013-07-07 15:17:00,
2013-07-07 10:22:00,77.3,71.4,30.11,West,261,2.0,4.0,82,0.00,SCT,,0.00,320.0,WeatherDisplay:10.37,2013-07-07 15:22:00,
2013-07-07 10:27:00,77.2,70.9,30.11,West,263,3.3,5.8,81,0.00,SCT,,0.00,346.0,WeatherDisplay:10.37,2013-07-07 15:27:00,
2013-07-07 10:32:00,77.3,69.9,30.11,SW,225,1.1,3.5,78,0.00,SCT,,0.00,406.0,WeatherDisplay:10.37,2013-07-07 15:32:00,
2013-07-07 10:37:00,77.5,72.3,30.11,West,268,2.9,6.9,84,0.00,SCT,,0.00,387.0,WeatherDisplay:10.37,2013-07-07 15:37:00,
2013-07-07 10:42:00,77.5,70.8,30.11,WSW,246,2.3,6.9,80,0.00,SCT,,0.00,246.0,WeatherDisplay:10.37,2013-07-07 15:42:00,
2013-07-07 10:47:00,77.4,70.7,30.11,WSW,255,1.3,3.5,80,0.00,SCT,,0.00,304.0,WeatherDisplay:10.37,2013-07-07 15:47:00,
2013-07-07 10:52:00,77.4,70.7,30.11,WSW,238,0.8,4.0,80,0.00,SCT,,0.00,301.0,WeatherDisplay:10.37,2013-07-07 15:52:00,
2013-07-07 10:57:00,77.7,72.1,30.11,WSW,238,0.8,3.5,83,0.00,SCT,,0.00,339.0,WeatherDisplay:10.37,2013-07-07 15:57:00,
2013-07-07 11:02:00,78.0,71.3,30.11,West,267,1.1,3.5,80,0.00,BKN,,0.00,686.0,WeatherDisplay:10.37,2013-07-07 16:02:00,
2013-07-07 11:07:00,78.2,71.5,30.11,West,259,1.0,4.6,80,0.00,BKN,,0.00,388.0,WeatherDisplay:10.37,2013-07-07 16:07:00,
2013-07-07 11:12:00,78.6,72.6,30.11,West,266,3.4,6.0,82,0.00,BKN,,0.00,691.0,WeatherDisplay:10.37,2013-07-07 16:12:00,
2013-07-07 11:17:00,79.0,71.6,30.11,West,259,0.5,3.5,78,0.00,BKN,,0.00,360.0,WeatherDisplay:10.37,2013-07-07 16:17:00,
2013-07-07 11:22:00,78.7,72.0,30.11,West,260,3.8,8.1,80,0.00,BKN,,0.00,680.0,WeatherDisplay:10.37,2013-07-07 16:22:00,
2013-07-07 11:27:00,78.8,72.8,30.11,WNW,286,4.8,7.0,82,0.00,BKN,,0.00,682.0,WeatherDisplay:10.37,2013-07-07 16:27:00,
2013-07-07 11:32:00,79.1,72.4,30.10,WNW,286,2.5,3.5,80,0.00,BKN,,0.00,615.0,WeatherDisplay:10.37,2013-07-07 16:32:00,
2013-07-07 11:37:00,78.9,71.8,30.10,West,271,2.6,5.8,79,0.00,BKN,,0.00,682.0,WeatherDisplay:10.37,2013-07-07 16:37:00,
2013-07-07 11:42:00,79.2,72.5,30.10,West,279,3.4,5.8,80,0.00,BKN,,0.00,251.0,WeatherDisplay:10.37,2013-07-07 16:42:00,
2013-07-07 11:47:00,79.2,73.2,30.10,WNW,293,2.8,5.8,82,0.00,BKN,,0.00,687.0,WeatherDisplay:10.37,2013-07-07 16:47:00,
2013-07-07 11:52:00,79.0,71.9,30.10,WNW,298,3.9,8.1,79,0.00,BKN,,0.00,207.0,WeatherDisplay:10.37,2013-07-07 16:52:00,
2013-07-07 11:57:00,79.0,72.3,30.10,West,267,3.2,6.9,80,0.00,BKN,,0.00,686.0,WeatherDisplay:10.37,2013-07-07 16:57:00,
2013-07-07 12:02:00,79.7,73.7,30.10,SW,225,1.7,6.9,82,0.00,BKN,,0.00,691.0,WeatherDisplay:10.37,2013-07-07 17:02:00,
2013-07-07 12:07:00,80.0,72.5,30.09,SSW,209,0.8,5.8,78,0.00,BKN,,0.00,209.0,WeatherDisplay:10.37,2013-07-07 17:07:00,
2013-07-07 12:12:00,79.9,72.8,30.09,SSW,209,2.8,5.0,79,0.00,BKN,,0.00,693.0,WeatherDisplay:10.37,2013-07-07 17:12:00,
2013-07-07 12:17:00,80.0,72.1,30.09,WNW,296,6.0,9.2,77,0.00,BKN,,0.00,694.0,WeatherDisplay:10.37,2013-07-07 17:17:00,
2013-07-07 12:22:00,79.9,72.4,30.09,WNW,284,1.3,6.9,78,0.00,SCT,,0.00,691.0,WeatherDisplay:10.37,2013-07-07 17:22:00,
2013-07-07 12:27:00,80.2,72.7,30.09,NW,305,5.2,8.1,78,0.00,SCT,,0.00,561.0,WeatherDisplay:10.37,2013-07-07 17:27:00,
2013-07-07 12:32:00,80.1,72.2,30.09,WNW,289,4.9,8.1,77,0.00,SCT,,0.00,689.0,WeatherDisplay:10.37,2013-07-07 17:32:00,
2013-07-07 12:37:00,80.3,72.0,30.09,West,269,4.6,6.9,76,0.00,SCT,,0.00,693.0,WeatherDisplay:10.37,2013-07-07 17:37:00,
2013-07-07 12:42:00,80.9,73.4,30.09,WSW,243,2.4,5.0,78,0.00,SCT,,0.00,687.0,WeatherDisplay:10.37,2013-07-07 17:42:00,
2013-07-07 12:47:00,81.2,73.3,30.09,NW,304,3.8,6.9,77,0.00,SCT,,0.00,693.0,WeatherDisplay:10.37,2013-07-07 17:47:00,
2013-07-07 12:52:00,80.5,71.8,30.09,NW,315,5.6,8.1,75,0.00,SCT,,0.00,689.0,WeatherDisplay:10.37,2013-07-07 17:52:00,
2013-07-07 12:58:00,80.4,72.1,30.09,NW,313,1.7,9.0,76,0.00,SCT,,0.00,185.0,WeatherDisplay:10.37,2013-07-07 17:58:00,
2013-07-07 13:03:00,80.1,72.6,30.09,NW,306,4.9,8.1,78,0.00,BKN,,0.00,687.0,WeatherDisplay:10.37,2013-07-07 18:03:00,
2013-07-07 13:08:00,80.1,72.2,30.08,NNW,332,4.1,8.1,77,0.00,BKN,,0.00,691.0,WeatherDisplay:10.37,2013-07-07 18:08:00,
2013-07-07 13:13:00,80.1,71.5,30.08,NW,316,4.0,6.9,75,0.00,BKN,,0.00,686.0,WeatherDisplay:10.37,2013-07-07 18:13:00,
2013-07-07 13:18:00,80.6,72.3,30.08,West,272,1.8,4.0,76,0.00,BKN,,0.00,686.0,WeatherDisplay:10.37,2013-07-07 18:18:00,
2013-07-07 13:23:00,81.4,73.1,30.08,West,277,1.2,3.5,76,0.00,SCT,,0.00,684.0,WeatherDisplay:10.37,2013-07-07 18:23:00,
2013-07-07 13:28:00,81.7,73.4,30.08,WNW,290,5.1,9.2,76,0.00,SCT,,0.00,682.0,WeatherDisplay:10.37,2013-07-07 18:28:00,
2013-07-07 13:33:00,81.8,72.3,30.08,WNW,295,5.4,8.1,73,0.00,SCT,,0.00,684.0,WeatherDisplay:10.37,2013-07-07 18:33:00,
2013-07-07 13:38:00,82.0,73.3,30.08,WNW,300,5.2,9.2,75,0.00,SCT,,0.00,684.0,WeatherDisplay:10.37,2013-07-07 18:38:00,
2013-07-07 13:43:00,81.9,72.4,30.07,NW,307,4.4,8.1,73,0.00,SCT,,0.00,686.0,WeatherDisplay:10.37,2013-07-07 18:43:00,
2013-07-07 13:48:00,81.7,72.6,30.07,NW,308,1.9,4.6,74,0.00,SCT,,0.00,214.0,WeatherDisplay:10.37,2013-07-07 18:48:00,
2013-07-07 13:53:00,82.1,73.4,30.07,WNW,286,4.6,8.1,75,0.00,SCT,,0.00,684.0,WeatherDisplay:10.37,2013-07-07 18:53:00,
2013-07-07 13:58:00,82.6,72.7,30.07,WNW,287,4.3,7.0,72,0.00,SCT,,0.00,686.0,WeatherDisplay:10.37,2013-07-07 18:58:00,
2013-07-07 14:03:00,82.9,74.2,30.07,WSW,255,2.1,6.9,75,0.00,SCT,,0.00,687.0,WeatherDisplay:10.37,2013-07-07 19:03:00,
2013-07-07 14:08:00,83.3,72.1,30.07,NW,304,3.0,6.9,69,0.00,SCT,,0.00,682.0,WeatherDisplay:10.37,2013-07-07 19:08:00,
2013-07-07 14:13:00,82.6,72.2,30.07,NW,308,0.0,0.0,71,0.00,SCT,,0.00,195.0,WeatherDisplay:10.37,2013-07-07 19:13:00,
2013-07-07 14:18:00,82.5,70.9,30.07,WNW,294,1.5,6.9,68,0.00,SCT,,0.00,684.0,WeatherDisplay:10.37,2013-07-07 19:18:00,
2013-07-07 14:23:00,82.9,72.9,30.07,NW,323,2.9,5.8,72,0.00,CLR,,0.00,679.0,WeatherDisplay:10.37,2013-07-07 19:23:00,
2013-07-07 14:28:00,82.8,71.2,30.06,NW,323,2.3,4.6,68,0.00,CLR,,0.00,679.0,WeatherDisplay:10.37,2013-07-07 19:28:00,
2013-07-07 14:33:00,82.9,72.1,30.06,SW,235,1.1,3.5,70,0.00,CLR,,0.00,680.0,WeatherDisplay:10.37,2013-07-07 19:33:00,
2013-07-07 14:38:00,83.5,72.7,30.06,SSW,192,2.8,5.8,70,0.00,CLR,,0.00,680.0,WeatherDisplay:10.37,2013-07-07 19:38:00,
2013-07-07 14:43:00,83.9,72.6,30.06,WSW,251,1.7,3.5,69,0.00,CLR,,0.00,237.0,WeatherDisplay:10.37,2013-07-07 19:43:00,
2013-07-07 14:48:00,84.0,72.3,30.06,WSW,254,1.3,3.5,68,0.00,CLR,,0.00,680.0,WeatherDisplay:10.37,2013-07-07 19:48:00,
2013-07-07 14:53:00,84.7,73.0,30.06,NW,322,4.3,7.0,68,0.00,CLR,,0.00,677.0,WeatherDisplay:10.37,2013-07-07 19:53:00,
2013-07-07 14:58:00,84.7,73.4,30.06,WNW,285,6.7,10.4,69,0.00,CLR,,0.00,677.0,WeatherDisplay:10.37,2013-07-07 19:58:00,
2013-07-07 15:03:00,84.1,73.3,30.06,West,279,4.0,8.1,70,0.00,SCT,,0.00,679.0,WeatherDisplay:10.37,2013-07-07 20:03:00,
2013-07-07 15:08:00,83.6,71.9,30.06,WNW,299,4.3,6.9,68,0.00,SCT,,0.00,550.0,WeatherDisplay:10.37,2013-07-07 20:08:00,
2013-07-07 15:13:00,83.4,71.7,30.06,WNW,299,0.8,3.5,68,0.00,SCT,,0.00,253.0,WeatherDisplay:10.37,2013-07-07 20:13:00,
2013-07-07 15:18:00,83.1,71.9,30.06,WNW,290,4.6,6.9,69,0.00,SCT,,0.00,204.0,WeatherDisplay:10.37,2013-07-07 20:18:00,
2013-07-07 15:23:00,82.9,72.1,30.05,WNW,294,0.0,2.3,70,0.00,BKN,,0.00,325.0,WeatherDisplay:10.37,2013-07-07 20:23:00,
2013-07-07 15:28:00,83.2,72.4,30.05,WNW,287,3.8,8.0,70,0.00,BKN,,0.00,670.0,WeatherDisplay:10.37,2013-07-07 20:28:00,
2013-07-07 15:33:00,83.6,72.8,30.05,WNW,300,3.8,7.0,70,0.00,BKN,,0.00,666.0,WeatherDisplay:10.37,2013-07-07 20:33:00,
2013-07-07 15:38:00,83.7,72.0,30.05,NW,304,4.9,8.1,68,0.00,BKN,,0.00,666.0,WeatherDisplay:10.37,2013-07-07 20:38:00,
2013-07-07 15:43:00,83.5,73.5,30.05,WNW,299,4.3,6.9,72,0.00,SCT,,0.00,664.0,WeatherDisplay:10.37,2013-07-07 20:43:00,
2013-07-07 15:48:00,83.7,71.6,30.05,WNW,283,3.7,8.1,67,0.00,SCT,,0.00,636.0,WeatherDisplay:10.37,2013-07-07 20:48:00,
2013-07-07 15:53:00,83.6,71.9,30.05,NW,306,4.1,6.9,68,0.00,SCT,,0.00,666.0,WeatherDisplay:10.37,2013-07-07 20:53:00,
2013-07-07 15:58:00,83.7,70.7,30.04,NW,306,0.1,1.2,65,0.00,SCT,,0.00,118.0,WeatherDisplay:10.37,2013-07-07 20:58:00,
2013-07-07 16:03:00,84.0,72.3,30.04,NW,312,2.2,3.5,68,0.00,CLR,,0.00,606.0,WeatherDisplay:10.37,2013-07-07 21:03:00,
2013-07-07 16:08:00,84.5,71.4,30.04,NW,311,0.2,3.0,65,0.00,CLR,,0.00,580.0,WeatherDisplay:10.37,2013-07-07 21:08:00,
2013-07-07 16:13:00,85.0,71.5,30.04,West,265,2.0,4.0,64,0.00,CLR,,0.00,550.0,WeatherDisplay:10.37,2013-07-07 21:13:00,
2013-07-07 16:18:00,85.4,72.3,30.04,SW,236,2.0,4.6,65,0.00,CLR,,0.00,529.0,WeatherDisplay:10.37,2013-07-07 21:18:00,
2013-07-07 16:23:00,86.0,71.5,30.04,WSW,237,0.3,2.3,62,0.00,CLR,,0.00,527.0,WeatherDisplay:10.37,2013-07-07 21:23:00,
2013-07-07 16:28:00,86.6,74.3,30.04,WNW,294,4.4,5.0,67,0.00,CLR,,0.00,510.0,WeatherDisplay:10.37,2013-07-07 21:28:00,
2013-07-07 16:33:00,86.0,71.5,30.03,South,175,0.2,2.3,62,0.00,CLR,,0.00,494.0,WeatherDisplay:10.37,2013-07-07 21:33:00,
2013-07-07 16:38:00,86.2,72.1,30.04,SW,227,2.7,6.0,63,0.00,CLR,,0.00,473.0,WeatherDisplay:10.37,2013-07-07 21:38:00,
2013-07-07 16:43:00,86.3,71.7,30.03,WSW,250,3.3,5.8,62,0.00,SCT,,0.00,462.0,WeatherDisplay:10.37,2013-07-07 21:43:00,
2013-07-07 16:48:00,86.5,72.9,30.03,SSW,207,2.5,5.0,64,0.00,SCT,,0.00,452.0,WeatherDisplay:10.37,2013-07-07 21:48:00,
2013-07-07 16:53:00,86.4,72.3,30.03,SW,229,2.4,3.5,63,0.00,SCT,,0.00,436.0,WeatherDisplay:10.37,2013-07-07 21:53:00,
2013-07-07 16:58:00,86.4,70.4,30.03,SSW,200,2.2,6.0,59,0.00,SCT,,0.00,418.0,WeatherDisplay:10.37,2013-07-07 21:58:00,
2013-07-07 17:03:00,86.3,73.1,30.03,SSW,212,3.1,7.0,65,0.00,SCT,,0.00,401.0,WeatherDisplay:10.37,2013-07-07 22:03:00,
2013-07-07 17:08:00,86.2,72.1,30.03,SW,228,3.2,5.0,63,0.00,SCT,,0.00,401.0,WeatherDisplay:10.37,2013-07-07 22:08:00,
2013-07-07 17:13:00,86.4,72.8,30.03,West,263,2.2,3.5,64,0.00,SCT,,0.00,385.0,WeatherDisplay:10.37,2013-07-07 22:13:00,
2013-07-07 17:18:00,85.9,71.8,30.03,West,270,1.3,3.5,63,0.00,SCT,,0.00,371.0,WeatherDisplay:10.37,2013-07-07 22:18:00,
2013-07-07 17:23:00,85.9,70.9,30.03,SW,234,2.7,4.6,61,0.00,CLR,,0.00,359.0,WeatherDisplay:10.37,2013-07-07 22:23:00,
2013-07-07 17:28:00,86.1,73.0,30.03,SW,215,1.4,3.5,65,0.00,CLR,,0.00,343.0,WeatherDisplay:10.37,2013-07-07 22:28:00,
2013-07-07 17:33:00,85.9,70.9,30.03,SW,219,1.7,5.8,61,0.00,CLR,,0.00,334.0,WeatherDisplay:10.37,2013-07-07 22:33:00,
2013-07-07 17:38:00,86.2,71.6,30.02,WSW,248,1.5,3.0,62,0.00,CLR,,0.00,318.0,WeatherDisplay:10.37,2013-07-07 22:38:00,
2013-07-07 17:43:00,86.4,72.3,30.02,WSW,248,2.5,4.0,63,0.00,CLR,,0.00,306.0,WeatherDisplay:10.37,2013-07-07 22:43:00,
2013-07-07 17:48:00,86.5,72.4,30.02,WSW,246,1.8,4.0,63,0.00,CLR,,0.00,295.0,WeatherDisplay:10.37,2013-07-07 22:48:00,
2013-07-07 17:53:00,86.5,72.9,30.02,WSW,246,0.6,3.0,64,0.00,CLR,,0.00,287.0,WeatherDisplay:10.37,2013-07-07 22:53:00,
2013-07-07 17:58:00,86.7,72.1,30.02,WSW,246,1.2,3.5,62,0.00,CLR,,0.00,230.0,WeatherDisplay:10.37,2013-07-07 22:58:00,
2013-07-07 18:03:00,86.5,73.3,30.02,WSW,246,0.6,3.5,65,0.00,SCT,,0.00,239.0,WeatherDisplay:10.37,2013-07-07 23:03:00,
2013-07-07 18:08:00,86.0,74.2,30.02,WSW,246,0.1,1.2,68,0.00,SCT,,0.00,227.0,WeatherDisplay:10.37,2013-07-07 23:08:00,
2013-07-07 18:13:00,85.5,71.9,30.02,WSW,250,1.5,3.5,64,0.00,SCT,,0.00,209.0,WeatherDisplay:10.37,2013-07-07 23:13:00,
2013-07-07 18:18:00,84.9,71.4,30.02,West,271,1.2,2.3,64,0.00,SCT,,0.00,195.0,WeatherDisplay:10.37,2013-07-07 23:18:00,
2013-07-07 18:23:00,85.0,71.5,30.03,West,270,0.0,1.2,64,0.00,CLR,,0.00,193.0,WeatherDisplay:10.37,2013-07-07 23:23:00,
2013-07-07 18:30:00,85.1,72.5,30.03,West,270,0.0,11.5,66,0.00,CLR,,0.00,113.0,WeatherDisplay:10.37,2013-07-07 23:30:00,
2013-07-07 18:35:00,85.0,72.4,30.03,West,270,0.0,0.0,66,0.00,CLR,,0.00,42.0,WeatherDisplay:10.37,2013-07-07 23:35:00,
2013-07-07 18:40:00,84.7,71.6,30.03,West,270,0.1,1.2,65,0.00,CLR,,0.00,123.0,WeatherDisplay:10.37,2013-07-07 23:40:00,
2013-07-07 18:45:00,84.5,71.9,30.03,West,270,0.0,0.0,66,0.00,CLR,,0.00,37.0,WeatherDisplay:10.37,2013-07-07 23:45:00,
2013-07-07 18:50:00,84.2,71.6,30.03,West,270,0.0,1.2,66,0.00,CLR,,0.00,33.0,WeatherDisplay:10.37,2013-07-07 23:50:00,
2013-07-07 18:55:00,84.0,71.9,30.03,West,270,0.0,0.0,67,0.00,CLR,,0.00,37.0,WeatherDisplay:10.37,2013-07-07 23:55:00,
2013-07-07 19:00:00,84.2,72.9,30.03,West,270,0.0,0.0,69,0.00,CLR,,0.00,84.0,WeatherDisplay:10.37,2013-07-08 00:00:00,
2013-07-07 19:06:00,84.6,72.9,30.03,West,270,0.0,0.0,68,0.00,CLR,,0.00,72.0,WeatherDisplay:10.37,2013-07-08 00:06:00,
2013-07-07 19:11:00,85.1,73.8,30.03,West,270,0.2,1.2,69,0.00,CLR,,0.00,56.0,WeatherDisplay:10.37,2013-07-08 00:11:00,
2013-07-07 19:16:00,85.5,74.2,30.04,West,270,0.0,1.0,69,0.00,CLR,,0.00,40.0,WeatherDisplay:10.37,2013-07-08 00:16:00,
2013-07-07 19:21:00,85.4,74.1,30.04,West,271,0.6,2.0,69,0.00,CLR,,0.00,33.0,WeatherDisplay:10.37,2013-07-08 00:21:00,
2013-07-07 19:26:00,84.9,74.0,30.04,West,270,0.1,1.2,70,0.00,CLR,,0.00,14.0,WeatherDisplay:10.37,2013-07-08 00:26:00,
2013-07-07 19:31:00,84.5,73.6,30.04,West,271,0.0,0.0,70,0.00,CLR,,0.00,12.0,WeatherDisplay:10.37,2013-07-08 00:31:00,
2013-07-07 19:36:00,84.3,73.9,30.04,West,270,0.0,0.0,71,0.00,CLR,,0.00,11.0,WeatherDisplay:10.37,2013-07-08 00:36:00,
2013-07-07 19:41:00,84.1,74.1,30.04,West,270,0.0,0.0,72,0.00,CLR,,0.00,11.0,WeatherDisplay:10.37,2013-07-08 00:41:00,
2013-07-07 19:46:00,83.7,73.7,30.04,West,270,0.0,0.0,72,0.00,CLR,,0.00,5.0,WeatherDisplay:10.37,2013-07-08 00:46:00,
2013-07-07 19:51:00,83.0,73.0,30.05,West,270,0.0,0.0,72,0.00,CLR,,0.00,0.0,WeatherDisplay:10.37,2013-07-08 00:51:00,
2013-07-07 19:56:00,82.3,72.4,30.05,West,270,0.0,0.0,72,0.00,CLR,,0.00,0.0,WeatherDisplay:10.37,2013-07-08 00:56:00,
2013-07-07 20:01:00,81.7,72.2,30.05,West,270,0.0,0.0,73,0.00,SCT,,0.00,0.0,WeatherDisplay:10.37,2013-07-08 01:01:00,
2013-07-07 20:06:00,80.8,71.3,30.05,West,270,0.0,0.0,73,0.00,SCT,,0.00,0.0,WeatherDisplay:10.37,2013-07-08 01:06:00,
2013-07-07 20:11:00,80.1,71.1,30.05,West,270,0.0,0.0,74,0.00,SCT,,0.00,0.0,WeatherDisplay:10.37,2013-07-08 01:11:00,
2013-07-07 20:16:00,79.4,70.8,30.05,West,270,0.0,0.0,75,0.00,SCT,,0.00,0.0,WeatherDisplay:10.37,2013-07-08 01:16:00,
2013-07-07 20:21:00,78.9,71.1,30.05,West,270,0.0,0.0,77,0.00,SCT,,0.00,0.0,WeatherDisplay:10.37,2013-07-08 01:21:00,
2013-07-07 20:26:00,78.5,71.8,30.05,West,270,0.0,0.0,80,0.00,SCT,,0.00,0.0,WeatherDisplay:10.37,2013-07-08 01:26:00,
2013-07-07 20:31:00,78.0,71.3,30.06,West,270,0.0,0.0,80,0.00,SCT,,0.00,0.0,WeatherDisplay:10.37,2013-07-08 01:31:00,
2013-07-07 20:36:00,77.4,70.7,30.06,West,270,0.0,0.0,80,0.00,SCT,,0.00,0.0,WeatherDisplay:10.37,2013-07-08 01:36:00,
2013-07-07 20:41:00,77.0,71.4,30.06,West,270,0.0,0.0,83,0.00,CLR,,0.00,0.0,WeatherDisplay:10.37,2013-07-08 01:41:00,
2013-07-07 20:46:00,76.8,71.6,30.06,West,270,0.0,0.0,84,0.00,CLR,,0.00,0.0,WeatherDisplay:10.37,2013-07-08 01:46:00,
2013-07-07 20:51:00,76.2,70.7,30.06,West,270,0.0,0.0,83,0.00,CLR,,0.00,0.0,WeatherDisplay:10.37,2013-07-08 01:51:00,
2013-07-07 20:56:00,75.8,70.6,30.06,West,270,0.0,0.0,84,0.00,CLR,,0.00,0.0,WeatherDisplay:10.37,2013-07-08 01:56:00,
2013-07-07 21:01:00,75.5,70.7,30.06,West,270,0.0,0.0,85,0.00,CLR,,0.00,0.0,WeatherDisplay:10.37,2013-07-08 02:01:00,
2013-07-07 21:06:00,75.2,70.7,30.07,West,270,0.0,0.0,86,0.00,CLR,,0.00,0.0,WeatherDisplay:10.37,2013-07-08 02:06:00,
2013-07-07 21:11:00,75.2,71.4,30.07,West,270,0.1,1.0,88,0.00,CLR,,0.00,0.0,WeatherDisplay:10.37,2013-07-08 02:11:00,
2013-07-07 21:16:00,75.2,71.7,30.07,West,270,0.0,1.2,89,0.00,CLR,,0.00,0.0,WeatherDisplay:10.37,2013-07-08 02:16:00,
2013-07-07 21:21:00,75.1,72.0,30.07,West,270,0.0,0.0,90,0.00,CLR,,0.00,0.0,WeatherDisplay:10.37,2013-07-08 02:21:00,
2013-07-07 21:26:00,75.0,71.9,30.08,West,270,0.0,0.0,90,0.00,CLR,,0.00,0.0,WeatherDisplay:10.37,2013-07-08 02:26:00,
2013-07-07 21:31:00,74.8,71.7,30.08,West,270,0.0,0.0,90,0.00,CLR,,0.00,0.0,WeatherDisplay:10.37,2013-07-08 02:31:00,
2013-07-07 21:36:00,74.6,71.8,30.08,West,270,0.1,1.0,91,0.00,CLR,,0.00,0.0,WeatherDisplay:10.37,2013-07-08 02:36:00,
2013-07-07 21:41:00,74.5,71.7,30.08,West,270,0.0,0.0,91,0.00,CLR,,0.00,0.0,WeatherDisplay:10.37,2013-07-08 02:41:00,
2013-07-07 21:46:00,74.3,71.5,30.08,West,270,0.0,0.0,91,0.00,CLR,,0.00,0.0,WeatherDisplay:10.37,2013-07-08 02:46:00,
2013-07-07 21:51:00,74.1,71.6,30.08,West,270,0.4,1.2,92,0.00,CLR,,0.00,0.0,WeatherDisplay:10.37,2013-07-08 02:51:00,
2013-07-07 21:56:00,73.9,71.4,30.08,West,270,0.0,0.0,92,0.00,CLR,,0.00,0.0,WeatherDisplay:10.37,2013-07-08 02:56:00,
2013-07-07 22:01:00,73.7,71.2,30.09,West,270,0.0,0.0,92,0.00,CLR,,0.00,0.0,WeatherDisplay:10.37,2013-07-08 03:01:00,
2013-07-07 22:06:00,73.5,71.0,30.09,West,270,0.0,0.0,92,0.00,CLR,,0.00,0.0,WeatherDisplay:10.37,2013-07-08 03:06:00,
2013-07-07 22:11:00,73.3,70.8,30.08,West,270,0.0,0.0,92,0.00,CLR,,0.00,0.0,WeatherDisplay:10.37,2013-07-08 03:11:00,
2013-07-07 22:16:00,73.0,70.5,30.09,West,270,0.0,0.0,92,0.00,CLR,,0.00,0.0,WeatherDisplay:10.37,2013-07-08 03:16:00,
2013-07-07 22:21:00,72.8,70.3,30.09,West,270,0.0,0.0,92,0.00,CLR,,0.00,0.0,WeatherDisplay:10.37,2013-07-08 03:21:00,
2013-07-07 22:26:00,72.6,70.5,30.09,West,270,0.0,0.0,93,0.00,CLR,,0.00,0.0,WeatherDisplay:10.37,2013-07-08 03:26:00,
2013-07-07 22:31:00,72.5,70.4,30.09,West,270,0.1,1.2,93,0.00,CLR,,0.00,0.0,WeatherDisplay:10.37,2013-07-08 03:31:00,
2013-07-07 22:36:00,72.4,70.6,30.09,West,270,0.3,1.2,94,0.00,CLR,,0.00,0.0,WeatherDisplay:10.37,2013-07-08 03:36:00,
2013-07-07 22:41:00,72.3,70.5,30.09,West,270,0.2,1.2,94,0.00,CLR,,0.00,0.0,WeatherDisplay:10.37,2013-07-08 03:41:00,
2013-07-07 22:46:00,72.1,70.0,30.09,West,270,0.0,0.0,93,0.00,CLR,,0.00,0.0,WeatherDisplay:10.37,2013-07-08 03:46:00,
2013-07-07 22:51:00,71.8,70.0,30.09,West,270,0.0,0.0,94,0.00,CLR,,0.00,0.0,WeatherDisplay:10.37,2013-07-08 03:51:00,
2013-07-07 22:56:00,71.7,69.9,30.09,West,270,0.0,0.0,94,0.00,CLR,,0.00,0.0,WeatherDisplay:10.37,2013-07-08 03:56:00,
2013-07-07 23:01:00,71.3,69.2,30.09,West,270,0.0,0.0,93,0.00,CLR,,0.00,0.0,WeatherDisplay:10.37,2013-07-08 04:01:00,
2013-07-07 23:02:00,71.2,69.1,30.09,West,270,0.0,0.0,93,0.00,CLR,,0.00,0.0,WeatherDisplay:10.37,2013-07-08 04:02:00,
2013-07-07 23:04:00,71.2,69.1,30.09,West,270,0.0,0.0,93,0.00,CLR,,0.00,0.0,WeatherDisplay:10.37,2013-07-08 04:04:00,
2013-07-07 23:05:00,71.2,69.4,30.09,West,270,0.0,0.0,94,0.00,CLR,,0.00,0.0,WeatherDisplay:10.37,2013-07-08 04:05:00,
2013-07-07 23:10:00,71.2,69.4,30.09,West,270,0.0,0.0,94,0.00,CLR,,0.00,0.0,WeatherDisplay:10.37,2013-07-08 04:10:00,
2013-07-07 23:15:00,71.2,69.7,30.09,West,270,0.0,0.0,95,0.00,CLR,,0.00,0.0,WeatherDisplay:10.37,2013-07-08 04:15:00,
2013-07-07 23:20:00,71.1,69.6,30.09,West,271,0.0,0.0,95,0.00,CLR,,0.00,0.0,WeatherDisplay:10.37,2013-07-08 04:20:00,
2013-07-07 23:25:00,71.0,69.5,30.09,West,270,0.0,0.0,95,0.00,CLR,,0.00,0.0,WeatherDisplay:10.37,2013-07-08 04:25:00,
2013-07-07 23:30:00,70.9,69.4,30.09,West,270,0.0,0.0,95,0.00,CLR,,0.00,0.0,WeatherDisplay:10.37,2013-07-08 04:30:00,
2013-07-07 23:35:00,70.9,69.4,30.09,West,270,0.0,0.0,95,0.00,CLR,,0.00,0.0,WeatherDisplay:10.37,2013-07-08 04:35:00,
2013-07-07 23:40:00,70.8,69.3,30.09,West,270,0.0,0.0,95,0.00,CLR,,0.00,0.0,WeatherDisplay:10.37,2013-07-08 04:40:00,
2013-07-07 23:45:00,70.9,69.4,30.09,West,270,0.0,0.0,95,0.00,CLR,,0.00,0.0,WeatherDisplay:10.37,2013-07-08 04:45:00,
2013-07-07 23:50:00,70.8,69.3,30.09,West,270,0.0,0.0,95,0.00,CLR,,0.00,0.0,WeatherDisplay:10.37,2013-07-08 04:50:00,
2013-07-07 23:55:00,70.5,69.0,30.09,West,270,0.0,0.0,95,0.00,CLR,,0.00,0.0,WeatherDisplay:10.37,2013-07-08 04:55:00,